M I D A S
Marine Information and Data Acquisition System
Tripno 447 of the Zeeleeuw from 2003-03-18 07:55:48 to 2003-03-18 14:00:53
Back to CruiseResearch ActivitiesStationsMapUnderway DataData graphs

EquipmentUnitsComments
TimeDGPSUTC
LatitudeDGPSDM.mWGS84
LongitudeDGPSDM.mWGS84
SpeedMeteo Stationm/sRelative wind speed
DirectionMeteo StationdegRelative wind direction
TemperatureMeteo Stationdeg CelciusAir temperature
PressureMeteo StationPaAtmospheric pressure
HumidityMeteo Station%Relative humidity
Missing or incorrect values are displayed as -999
Metereological data collected by the RV Zeeleeuw from 2003-03-18 07:55:48 to 2003-03-18 14:00:53
Time Latitude Longitude Speed Direction Temperature Pressure Humidity
2003-03-18 07:56 51°13.68 2°55.914 3.6 53 5.3 103480 85
2003-03-18 07:57 51°13.685 2°55.872 1.9 49 5.3 103490 85
2003-03-18 07:58 51°13.685 2°55.781 2.2 11 5.4 103490 85
2003-03-18 07:59 51°13.687 2°55.746 4.3 344 5.4 103490 85
2003-03-18 08:00 51°13.725 2°55.741 3 306 5.3 103490 84
2003-03-18 08:01 51°13.813 2°55.649 4.5 324 5.2 103480 85
2003-03-18 08:02 51°13.957 2°55.544 8 322 5.2 103480 85
2003-03-18 08:03 51°14.107 2°55.433 7.4 315 5.1 103480 85
2003-03-18 08:04 51°14.242 2°55.297 6.1 296 5.1 103480 85
2003-03-18 08:05 51°14.339 2°55.095 4.7 296 5.1 103480 86
2003-03-18 08:06 51°14.408 2°54.813 6.1 277 5 103480 86
2003-03-18 08:07 51°14.488 2°54.502 7.3 292 5 103480 87
2003-03-18 08:08 51°14.652 2°54.289 11.2 302 4.9 103460 87
2003-03-18 08:09 51°14.849 2°54.119 11.2 307 4.9 103460 87
2003-03-18 08:10 51°15.041 2°53.96 10.9 307 5 103460 88
2003-03-18 08:11 51°15.231 2°53.801 13 309 5 103470 88
2003-03-18 08:12 51°15.426 2°53.628 12.1 307 4.9 103460 88
2003-03-18 08:13 51°15.625 2°53.444 10.8 320 5 103460 88
2003-03-18 08:14 51°15.827 2°53.307 12.6 316 5 103460 88
2003-03-18 08:15 51°16.035 2°53.196 11.6 317 5 103460 88
2003-03-18 08:16 51°16.244 2°53.08 12.4 312 5 103460 88
2003-03-18 08:17 51°16.453 2°52.961 12.2 317 5.1 103460 88
2003-03-18 08:18 51°16.66 2°52.847 11.1 320 5.1 103460 88
2003-03-18 08:19 51°16.863 2°52.736 11.6 316 5.1 103460 88
2003-03-18 08:20 51°17.066 2°52.623 11.6 311 5.1 103460 88
2003-03-18 08:21 51°17.272 2°52.506 11.6 313 5.2 103470 88
2003-03-18 08:22 51°17.48 2°52.411 12.7 320 5.2 103460 88
2003-03-18 08:23 51°17.687 2°52.322 11.5 322 5.2 103460 88
2003-03-18 08:24 51°17.891 2°52.233 12.3 317 5.2 103470 88
2003-03-18 08:25 51°18.103 2°52.137 12.1 323 5.2 103470 88
2003-03-18 08:26 51°18.312 2°52.034 12.2 317 5.2 103470 88
2003-03-18 08:27 51°18.521 2°51.927 12.2 325 5.2 103480 88
2003-03-18 08:28 51°18.728 2°51.818 12.5 319 5.1 103470 88
2003-03-18 08:29 51°18.928 2°51.711 11 318 5.1 103470 88
2003-03-18 08:30 51°19.14 2°51.591 11.6 325 5.2 103480 89
2003-03-18 08:31 51°19.344 2°51.474 12.8 323 5.2 103480 89
2003-03-18 08:32 51°19.547 2°51.361 11.8 319 5.1 103470 89
2003-03-18 08:33 51°19.754 2°51.248 12.4 320 5.2 103480 89
2003-03-18 08:34 51°19.962 2°51.144 12.3 323 5.1 103480 89
2003-03-18 08:35 51°20.173 2°51.033 11.7 322 5.1 103480 89
2003-03-18 08:36 51°20.384 2°50.92 12.7 324 5.1 103480 89
2003-03-18 08:37 51°20.597 2°50.802 12 325 5.1 103470 89
2003-03-18 08:38 51°20.813 2°50.68 11.8 321 5.1 103480 89
2003-03-18 08:39 51°21.017 2°50.555 12.3 323 5.1 103480 89
2003-03-18 08:40 51°21.231 2°50.422 12.9 324 5.1 103480 89
2003-03-18 08:41 51°21.445 2°50.297 12.1 325 5.1 103480 89
2003-03-18 08:42 51°21.657 2°50.185 12.2 321 5.1 103470 89
2003-03-18 08:43 51°21.862 2°50.07 11.5 329 5 103490 89
2003-03-18 08:44 51°22.07 2°49.963 11.5 324 5 103480 89
2003-03-18 08:45 51°22.274 2°49.853 11.5 323 5.1 103480 89
2003-03-18 08:46 51°22.486 2°49.752 10.8 319 5.1 103480 89
2003-03-18 08:47 51°22.699 2°49.652 12 319 5 103490 89
2003-03-18 08:48 51°22.904 2°49.555 11.5 317 5 103490 89
2003-03-18 08:49 51°23.108 2°49.453 12.3 327 5 103490 89
2003-03-18 08:50 51°23.313 2°49.347 11.1 319 5 103480 89
2003-03-18 08:51 51°23.518 2°49.237 11.8 323 5 103490 89
2003-03-18 08:52 51°23.725 2°49.149 11.9 323 5 103480 89
2003-03-18 08:53 51°23.934 2°49.075 11 326 5 103500 90
2003-03-18 08:54 51°24.144 2°49.014 11.8 330 5 103500 90
2003-03-18 08:55 51°24.354 2°48.964 12.4 328 5 103500 90
2003-03-18 08:56 51°24.562 2°48.918 12.6 330 5.1 103490 90
2003-03-18 08:57 51°24.778 2°48.871 12.2 329 5.1 103500 89
2003-03-18 08:58 51°24.993 2°48.83 13.3 332 5.1 103490 90
2003-03-18 08:59 51°25.207 2°48.788 12.3 322 5.1 103500 89
2003-03-18 09:00 51°25.415 2°48.689 12 323 5.1 103500 89
2003-03-18 09:01 51°25.611 2°48.538 11.7 321 5 103500 89
2003-03-18 09:02 51°25.794 2°48.406 9.5 310 5 103510 90
2003-03-18 09:03 51°25.92 2°48.365 9.2 331 5 103510 90
2003-03-18 09:04 51°25.973 2°48.435 8.1 349 5.1 103520 90
2003-03-18 09:05 51°25.993 2°48.465 6.7 357 5.2 103520 90
2003-03-18 09:06 51°25.989 2°48.474 6.2 356 5.2 103520 90
2003-03-18 09:07 51°25.987 2°48.473 5.9 344 5.2 103520 90
2003-03-18 09:08 51°25.984 2°48.465 6.2 335 5.3 103530 90
2003-03-18 09:09 51°25.98 2°48.456 5.8 341 5.3 103530 89
2003-03-18 09:10 51°25.977 2°48.446 5.8 339 5.3 103530 89
2003-03-18 09:11 51°25.975 2°48.434 6.2 330 5.3 103520 89
2003-03-18 09:12 51°25.984 2°48.427 7.4 330 5.3 103520 89
2003-03-18 09:13 51°25.989 2°48.416 6.5 321 5.2 103520 89
2003-03-18 09:14 51°25.986 2°48.403 6.5 339 5.2 103520 89
2003-03-18 09:15 51°25.979 2°48.395 5.9 1 5.3 103530 89
2003-03-18 09:16 51°25.971 2°48.398 6.6 351 5.4 103520 89
2003-03-18 09:17 51°25.97 2°48.398 6.4 341 5.4 103520 89
2003-03-18 09:18 51°25.97 2°48.4 6.8 335 5.4 103520 89
2003-03-18 09:19 51°25.973 2°48.397 7 334 5.4 103520 89
2003-03-18 09:20 51°25.977 2°48.396 6.3 346 5.4 103520 89
2003-03-18 09:21 51°25.979 2°48.399 6.6 346 5.4 103520 89
2003-03-18 09:22 51°25.981 2°48.403 7.2 348 5.5 103520 89
2003-03-18 09:23 51°25.982 2°48.406 6.7 344 5.5 103520 89
2003-03-18 09:24 51°25.977 2°48.405 6.2 346 5.5 103520 89
2003-03-18 09:25 51°25.97 2°48.401 6.7 349 5.5 103520 89
2003-03-18 09:26 51°25.966 2°48.39 6.7 345 5.5 103520 89
2003-03-18 09:27 51°25.959 2°48.38 6.3 338 5.5 103520 89
2003-03-18 09:28 51°25.952 2°48.366 6.5 336 5.5 103520 88
2003-03-18 09:29 51°25.958 2°48.363 7.5 342 5.5 103520 88
2003-03-18 09:30 51°25.994 2°48.414 9.1 348 5.5 103510 88
2003-03-18 09:31 51°26.011 2°48.454 7.9 349 5.5 103510 88
2003-03-18 09:32 51°26.018 2°48.471 6.6 345 5.5 103510 88
2003-03-18 09:33 51°26.022 2°48.475 7.4 340 5.5 103510 88
2003-03-18 09:34 51°26.02 2°48.47 6.9 341 5.5 103510 88
2003-03-18 09:35 51°26.018 2°48.457 6.4 335 5.5 103510 88
2003-03-18 09:36 51°26.015 2°48.444 6.6 336 5.5 103510 88
2003-03-18 09:37 51°26.011 2°48.434 6 340 5.5 103510 88
2003-03-18 09:38 51°26.007 2°48.427 6.7 346 5.6 103520 88
2003-03-18 09:39 51°26.005 2°48.423 6.9 339 5.6 103530 88
2003-03-18 09:40 51°26.003 2°48.418 7.1 328 5.6 103520 88
2003-03-18 09:41 51°26.002 2°48.408 6.9 335 5.5 103520 88
2003-03-18 09:42 51°26 2°48.402 7.3 341 5.5 103510 88
2003-03-18 09:43 51°25.995 2°48.398 6.9 336 5.5 103520 88
2003-03-18 09:44 51°25.991 2°48.393 7.2 335 5.5 103520 88
2003-03-18 09:45 51°25.989 2°48.383 6.6 330 5.5 103520 88
2003-03-18 09:46 51°25.987 2°48.374 6.4 334 5.5 103510 88
2003-03-18 09:47 51°26.015 2°48.42 9.4 5 5.6 103510 88
2003-03-18 09:48 51°26.018 2°48.524 8.4 357 5.6 103510 88
2003-03-18 09:49 51°26.013 2°48.557 7.1 10 5.6 103510 88
2003-03-18 09:50 51°25.996 2°48.557 7.1 5 5.6 103510 88
2003-03-18 09:51 51°25.983 2°48.556 6.7 345 5.7 103510 88
2003-03-18 09:52 51°25.975 2°48.548 6.5 320 5.7 103510 88
2003-03-18 09:53 51°25.974 2°48.529 6.6 309 5.6 103500 88
2003-03-18 09:54 51°25.975 2°48.508 5.9 308 5.5 103500 88
2003-03-18 09:55 51°25.975 2°48.488 6 320 5.5 103500 88
2003-03-18 09:56 51°25.973 2°48.474 6.7 326 5.4 103510 88
2003-03-18 09:57 51°25.967 2°48.461 6.1 321 5.4 103510 88
2003-03-18 09:58 51°25.963 2°48.448 6.6 323 5.4 103500 88
2003-03-18 09:59 51°25.96 2°48.433 6.7 323 5.4 103500 89
2003-03-18 10:00 51°25.957 2°48.422 6.9 331 5.4 103510 89
2003-03-18 10:01 51°25.952 2°48.412 5.9 326 5.4 103510 89
2003-03-18 10:02 51°25.953 2°48.408 8.1 334 5.4 103500 89
2003-03-18 10:03 51°26.008 2°48.461 9 330 5.5 103500 89
2003-03-18 10:04 51°26.04 2°48.486 6.2 338 5.6 103500 89
2003-03-18 10:05 51°26.038 2°48.494 7.6 344 5.6 103500 89
2003-03-18 10:06 51°26.035 2°48.497 7 333 5.6 103490 89
2003-03-18 10:07 51°26.034 2°48.499 5.8 337 5.6 103500 89
2003-03-18 10:08 51°26.029 2°48.497 6.2 334 5.7 103500 89
2003-03-18 10:09 51°26.024 2°48.492 6.4 334 5.7 103490 89
2003-03-18 10:10 51°26.017 2°48.486 5.7 325 5.6 103490 89
2003-03-18 10:11 51°26.011 2°48.474 6.3 321 5.6 103490 89
2003-03-18 10:12 51°26.004 2°48.461 6.7 318 5.5 103490 89
2003-03-18 10:13 51°25.994 2°48.446 5.9 322 5.5 103490 89
2003-03-18 10:14 51°25.986 2°48.433 7 332 5.4 103490 89
2003-03-18 10:15 51°25.979 2°48.422 6 333 5.4 103490 89
2003-03-18 10:16 51°25.972 2°48.413 7.4 333 5.4 103490 89
2003-03-18 10:17 51°25.967 2°48.406 7.2 326 5.4 103490 89
2003-03-18 10:18 51°25.963 2°48.395 7.1 325 5.4 103490 89
2003-03-18 10:19 51°25.959 2°48.389 7.3 326 5.4 103490 89
2003-03-18 10:20 51°25.955 2°48.383 7.4 338 5.4 103490 89
2003-03-18 10:21 51°25.951 2°48.387 7.2 344 5.4 103490 90
2003-03-18 10:22 51°25.941 2°48.386 7 355 5.5 103490 89
2003-03-18 10:23 51°25.931 2°48.392 7.5 355 5.5 103500 89
2003-03-18 10:24 51°25.955 2°48.463 8.9 333 5.6 103490 89
2003-03-18 10:25 51°26.032 2°48.472 8.3 310 5.5 103480 89
2003-03-18 10:26 51°26.063 2°48.477 7.3 322 5.4 103490 89
2003-03-18 10:27 51°26.061 2°48.477 6.1 337 5.4 103490 89
2003-03-18 10:28 51°26.059 2°48.484 7.3 336 5.5 103490 89
2003-03-18 10:29 51°26.056 2°48.491 6.7 330 5.5 103490 89
2003-03-18 10:30 51°26.055 2°48.492 8 313 5.4 103480 89
2003-03-18 10:31 51°26.069 2°48.506 8.7 334 5.4 103480 89
2003-03-18 10:32 51°26.078 2°48.606 9.4 28 5.4 103470 89
2003-03-18 10:33 51°26.002 2°48.69 6.3 88 5.4 103480 89
2003-03-18 10:34 51°25.887 2°48.686 6.9 90 5.4 103490 89
2003-03-18 10:35 51°25.719 2°48.631 5.2 85 5.3 103490 89
2003-03-18 10:36 51°25.523 2°48.487 4.2 86 5.4 103490 89
2003-03-18 10:37 51°25.314 2°48.301 3.6 70 5.4 103490 89
2003-03-18 10:38 51°25.107 2°48.112 4.5 64 5.5 103490 89
2003-03-18 10:39 51°24.903 2°47.921 3.2 70 5.6 103480 90
2003-03-18 10:40 51°24.699 2°47.731 3.2 53 5.7 103480 90
2003-03-18 10:41 51°24.493 2°47.539 3.7 67 5.8 103480 89
2003-03-18 10:42 51°24.292 2°47.348 4.1 72 5.9 103470 89
2003-03-18 10:43 51°24.094 2°47.139 2.8 65 5.9 103470 89
2003-03-18 10:44 51°23.905 2°46.917 2.7 66 6 103470 89
2003-03-18 10:45 51°23.713 2°46.696 3.4 131 6.1 103470 89
2003-03-18 10:46 51°23.518 2°46.476 2.9 60 6.1 103470 89
2003-03-18 10:47 51°23.329 2°46.25 2.2 82 6.1 103460 88
2003-03-18 10:48 51°23.181 2°45.969 0.8 35 6.2 103470 88
2003-03-18 10:49 51°23.043 2°45.681 1.1 96 6.4 103460 88
2003-03-18 10:50 51°22.895 2°45.389 0.9 102 6.4 103460 88
2003-03-18 10:51 51°22.732 2°45.121 1.7 61 6.5 103460 88
2003-03-18 10:52 51°22.542 2°44.906 3.2 60 6.5 103450 87
2003-03-18 10:53 51°22.336 2°44.734 2.6 60 6.5 103450 87
2003-03-18 10:54 51°22.109 2°44.639 5.5 72 6.5 103450 86
2003-03-18 10:55 51°21.885 2°44.538 4.3 63 6.4 103450 86
2003-03-18 10:56 51°21.669 2°44.396 3.8 73 6.4 103450 85
2003-03-18 10:57 51°21.454 2°44.251 3.4 52 6.4 103440 85
2003-03-18 10:58 51°21.244 2°44.105 4 56 6.3 103440 85
2003-03-18 10:59 51°21.035 2°43.956 3.9 78 6.4 103440 85
2003-03-18 11:00 51°20.828 2°43.809 4 72 6.4 103440 85
2003-03-18 11:01 51°20.621 2°43.661 4.4 83 6.3 103440 85
2003-03-18 11:02 51°20.414 2°43.514 3.6 65 6.3 103440 85
2003-03-18 11:03 51°20.213 2°43.349 2.7 77 6.4 103440 85
2003-03-18 11:04 51°20.011 2°43.185 2.6 68 6.4 103430 85
2003-03-18 11:05 51°19.811 2°43.025 2.5 60 6.4 103430 85
2003-03-18 11:06 51°19.611 2°42.865 4 80 6.4 103420 85
2003-03-18 11:07 51°19.41 2°42.702 3.8 74 6.4 103420 85
2003-03-18 11:08 51°19.211 2°42.541 4.1 83 6.4 103410 85
2003-03-18 11:09 51°19.014 2°42.379 4.2 61 6.4 103420 85
2003-03-18 11:10 51°18.818 2°42.218 2.5 75 6.4 103420 85
2003-03-18 11:11 51°18.627 2°42.064 2.6 78 6.4 103420 85
2003-03-18 11:12 51°18.428 2°41.904 3 73 6.4 103410 85
2003-03-18 11:13 51°18.232 2°41.746 2.9 55 6.5 103410 85
2003-03-18 11:14 51°18.039 2°41.59 3.8 318 6.5 103410 84
2003-03-18 11:15 51°17.843 2°41.439 4.2 68 6.5 103410 84
2003-03-18 11:16 51°17.648 2°41.289 3.5 81 6.5 103410 84
2003-03-18 11:17 51°17.454 2°41.136 4.6 77 6.5 103410 84
2003-03-18 11:18 51°17.257 2°40.98 4 85 6.5 103410 84
2003-03-18 11:19 51°17.061 2°40.825 3.7 65 6.6 103410 84
2003-03-18 11:20 51°16.867 2°40.673 3.9 62 6.6 103410 84
2003-03-18 11:21 51°16.673 2°40.516 4.7 62 6.6 103410 84
2003-03-18 11:22 51°16.467 2°40.39 4.4 72 6.6 103410 84
2003-03-18 11:23 51°16.26 2°40.265 4.5 79 6.6 103410 83
2003-03-18 11:24 51°16.053 2°40.142 4.6 67 6.5 103410 83
2003-03-18 11:25 51°15.844 2°40.019 4.5 77 6.6 103400 83
2003-03-18 11:26 51°15.639 2°39.899 4.7 70 6.5 103410 83
2003-03-18 11:27 51°15.43 2°39.779 4.8 72 6.5 103400 83
2003-03-18 11:28 51°15.225 2°39.658 5 85 6.5 103400 83
2003-03-18 11:29 51°15.016 2°39.579 3.7 82 6.5 103400 83
2003-03-18 11:30 51°14.805 2°39.5 4.6 81 6.5 103400 84
2003-03-18 11:31 51°14.594 2°39.421 5.5 87 6.4 103390 84
2003-03-18 11:32 51°14.384 2°39.35 4.5 67 6.4 103390 84
2003-03-18 11:33 51°14.177 2°39.264 4.9 91 6.4 103390 84
2003-03-18 11:34 51°13.98 2°39.131 3.7 92 6.3 103390 84
2003-03-18 11:35 51°13.791 2°38.97 2.2 86 6.4 103390 84
2003-03-18 11:36 51°13.604 2°38.799 1.9 66 6.4 103400 85
2003-03-18 11:37 51°13.415 2°38.623 2 87 6.4 103390 85
2003-03-18 11:38 51°13.227 2°38.451 3.1 91 6.5 103390 85
2003-03-18 11:39 51°13.041 2°38.279 2.3 81 6.5 103390 85
2003-03-18 11:40 51°12.852 2°38.108 3 96 6.5 103390 84
2003-03-18 11:41 51°12.666 2°37.936 2.2 59 6.5 103390 84
2003-03-18 11:42 51°12.48 2°37.765 2.2 56 6.6 103390 85
2003-03-18 11:43 51°12.291 2°37.597 2.6 99 6.7 103390 84
2003-03-18 11:44 51°12.105 2°37.431 3.1 88 6.6 103390 84
2003-03-18 11:45 51°11.921 2°37.265 2.1 109 6.6 103390 84
2003-03-18 11:46 51°11.732 2°37.1 1.6 79 6.5 103380 84
2003-03-18 11:47 51°11.545 2°36.929 1.4 107 6.5 103390 84
2003-03-18 11:48 51°11.36 2°36.759 1.3 105 6.4 103380 84
2003-03-18 11:49 51°11.172 2°36.591 2.1 101 6.5 103380 84
2003-03-18 11:50 51°10.986 2°36.429 1.8 106 6.5 103380 84
2003-03-18 11:51 51°10.798 2°36.265 1.5 67 6.6 103380 84
2003-03-18 11:52 51°10.615 2°36.096 1.9 98 6.7 103380 85
2003-03-18 11:53 51°10.429 2°35.929 1.1 126 6.7 103380 84
2003-03-18 11:54 51°10.216 2°35.914 7.4 69 6.7 103370 84
2003-03-18 11:55 51°10.016 2°36.1 9.3 56 6.7 103360 84
2003-03-18 11:56 51°9.838 2°36.35 10.6 53 6.7 103360 84
2003-03-18 11:57 51°9.671 2°36.633 10.2 48 6.6 103350 84
2003-03-18 11:58 51°9.522 2°36.941 11.4 46 6.5 103350 84
2003-03-18 11:59 51°9.369 2°37.222 10 54 6.4 103350 84
2003-03-18 12:00 51°9.241 2°37.303 3.2 184 6.4 103360 84
2003-03-18 12:01 51°9.176 2°37.241 4.6 147 6.4 103360 85
2003-03-18 12:02 51°9.123 2°37.228 5.7 185 6.4 103360 85
2003-03-18 12:03 51°9.102 2°37.202 7 202 6.3 103350 85
2003-03-18 12:04 51°9.096 2°37.188 7.2 224 6.2 103340 86
2003-03-18 12:05 51°9.096 2°37.182 8.3 230 6.1 103340 86
2003-03-18 12:06 51°9.099 2°37.182 7.1 232 6.2 103340 86
2003-03-18 12:07 51°9.103 2°37.18 7.7 226 6.2 103340 86
2003-03-18 12:08 51°9.107 2°37.181 8.1 317 6.1 103340 87
2003-03-18 12:09 51°9.111 2°37.181 8.2 228 6.1 103340 87
2003-03-18 12:10 51°9.114 2°37.182 9.2 230 6.1 103330 87
2003-03-18 12:11 51°9.119 2°37.185 7.5 228 6 103340 87
2003-03-18 12:12 51°9.125 2°37.184 6.7 223 6 103330 87
2003-03-18 12:13 51°9.13 2°37.186 8.1 227 6.1 103330 87
2003-03-18 12:14 51°9.135 2°37.188 6.5 224 6.1 103330 87
2003-03-18 12:15 51°9.14 2°37.185 7.8 227 6 103320 87
2003-03-18 12:16 51°9.143 2°37.184 6.6 224 6 103340 87
2003-03-18 12:17 51°9.148 2°37.179 7.2 225 6.1 103330 88
2003-03-18 12:18 51°9.15 2°37.183 7.7 227 6.1 103320 88
2003-03-18 12:19 51°9.156 2°37.187 8.7 233 6 103330 87
2003-03-18 12:20 51°9.161 2°37.197 8.2 238 6.1 103320 87
2003-03-18 12:21 51°9.172 2°37.195 7 282 6.1 103320 88
2003-03-18 12:22 51°9.241 2°37.211 10.6 359 6 103320 88
2003-03-18 12:23 51°9.261 2°37.362 10.4 72 6.1 103300 88
2003-03-18 12:24 51°9.183 2°37.439 2.7 166 6.2 103330 88
2003-03-18 12:25 51°9.129 2°37.343 6.1 221 6.2 103320 88
2003-03-18 12:26 51°9.108 2°37.242 6.8 217 6.2 103320 87
2003-03-18 12:27 51°9.105 2°37.22 7.7 235 6.2 103310 87
2003-03-18 12:28 51°9.105 2°37.206 6.9 228 6.2 103310 87
2003-03-18 12:29 51°9.099 2°37.188 8.9 206 6.2 103310 87
2003-03-18 12:30 51°9.098 2°37.192 7.2 197 6.1 103320 87
2003-03-18 12:31 51°9.087 2°37.191 6.5 183 6 103320 87
2003-03-18 12:32 51°9.079 2°37.196 7.2 192 6.1 103320 87
2003-03-18 12:33 51°9.075 2°37.199 6.9 202 6 103310 87
2003-03-18 12:34 51°9.072 2°37.202 7.7 213 6.1 103310 88
2003-03-18 12:35 51°9.072 2°37.207 7.3 222 6 103310 88
2003-03-18 12:36 51°9.073 2°37.214 6.9 221 6 103310 88
2003-03-18 12:37 51°9.075 2°37.222 7.5 231 6 103310 88
2003-03-18 12:38 51°9.08 2°37.229 7.8 240 6.1 103320 88
2003-03-18 12:39 51°9.086 2°37.221 7.2 228 6.1 103310 88
2003-03-18 12:40 51°9.09 2°37.215 8.6 236 6.1 103310 88
2003-03-18 12:41 51°9.096 2°37.215 8.2 235 6.1 103310 88
2003-03-18 12:42 51°9.102 2°37.218 8.2 238 6.1 103310 88
2003-03-18 12:43 51°9.11 2°37.223 8 240 6.1 103310 88
2003-03-18 12:44 51°9.117 2°37.23 7 240 6.1 103310 88
2003-03-18 12:45 51°9.124 2°37.24 6.8 245 6.2 103310 88
2003-03-18 12:46 51°9.131 2°37.248 7.8 246 6.2 103310 88
2003-03-18 12:47 51°9.136 2°37.259 8.4 248 6.2 103310 87
2003-03-18 12:48 51°9.143 2°37.271 7.3 251 6.1 103310 87
2003-03-18 12:49 51°9.149 2°37.284 7.1 250 6.1 103310 87
2003-03-18 12:50 51°9.154 2°37.296 7.2 254 6.1 103310 87
2003-03-18 12:51 51°9.161 2°37.307 9.2 259 6.2 103310 88
2003-03-18 12:52 51°9.166 2°37.322 8.5 257 6.2 103300 87
2003-03-18 12:53 51°9.172 2°37.333 8.4 260 6.2 103300 87
2003-03-18 12:54 51°9.178 2°37.344 7.8 252 6.2 103300 87
2003-03-18 12:55 51°9.184 2°37.355 7.8 253 6.2 103290 87
2003-03-18 12:56 51°9.19 2°37.366 7.9 257 6.2 103290 87
2003-03-18 12:57 51°9.195 2°37.377 7.5 251 6.2 103290 88
2003-03-18 12:58 51°9.201 2°37.386 8.6 255 6.2 103290 88
2003-03-18 12:59 51°9.207 2°37.397 8.4 250 6.2 103290 87
2003-03-18 13:00 51°9.211 2°37.407 7 248 6.2 103290 87
2003-03-18 13:01 51°9.219 2°37.411 7.4 263 6.2 103290 87
2003-03-18 13:02 51°9.235 2°37.413 8.1 279 6.2 103280 88
2003-03-18 13:03 51°9.255 2°37.415 6.6 298 6.2 103280 88
2003-03-18 13:04 51°9.276 2°37.424 8 310 6.1 103280 88
2003-03-18 13:05 51°9.301 2°37.441 8.2 328 6.1 103280 88
2003-03-18 13:06 51°9.324 2°37.459 8.3 323 6.1 103280 88
2003-03-18 13:07 51°9.346 2°37.481 7.7 343 6.2 103280 88
2003-03-18 13:08 51°9.374 2°37.539 10.3 27 6.2 103280 88
2003-03-18 13:09 51°9.386 2°37.771 14.3 24 6.3 103250 88
2003-03-18 13:10 51°9.448 2°38.092 14.9 13 6.4 103250 87
2003-03-18 13:11 51°9.533 2°38.452 16.3 16 6.5 103250 87
2003-03-18 13:12 51°9.618 2°38.824 15.4 13 6.5 103240 87
2003-03-18 13:13 51°9.704 2°39.188 14.8 13 6.6 103240 86
2003-03-18 13:14 51°9.792 2°39.552 14.5 12 6.6 103240 86
2003-03-18 13:15 51°9.879 2°39.917 14.3 14 6.6 103240 86
2003-03-18 13:16 51°9.968 2°40.281 14.6 13 6.6 103230 86
2003-03-18 13:17 51°10.074 2°40.637 15.7 13 6.6 103240 86
2003-03-18 13:18 51°10.175 2°40.992 15.4 14 6.6 103240 86
2003-03-18 13:19 51°10.276 2°41.355 14.9 14 6.6 103240 86
2003-03-18 13:20 51°10.369 2°41.72 14.9 14 6.7 103250 86
2003-03-18 13:21 51°10.463 2°42.085 14.9 16 6.6 103240 86
2003-03-18 13:22 51°10.555 2°42.449 16.1 17 6.6 103230 85
2003-03-18 13:23 51°10.647 2°42.812 15.8 14 6.6 103250 86
2003-03-18 13:24 51°10.739 2°43.169 14.9 13 6.6 103230 86
2003-03-18 13:25 51°10.833 2°43.538 14.9 14 6.6 103220 86
2003-03-18 13:26 51°10.928 2°43.902 14.5 14 6.6 103220 86
2003-03-18 13:27 51°11.023 2°44.266 14.7 11 6.6 103220 86
2003-03-18 13:28 51°11.116 2°44.627 13.7 12 6.6 103220 86
2003-03-18 13:29 51°11.211 2°44.989 15.6 12 6.6 103220 85
2003-03-18 13:30 51°11.309 2°45.353 15.4 18 6.6 103220 85
2003-03-18 13:31 51°11.404 2°45.711 15.2 15 6.6 103230 85
2003-03-18 13:32 51°11.52 2°46.057 15.5 13 6.6 103220 85
2003-03-18 13:33 51°11.638 2°46.399 15 11 6.6 103220 85
2003-03-18 13:34 51°11.751 2°46.727 15.9 12 6.6 103220 86
2003-03-18 13:35 51°11.87 2°47.075 14.9 12 6.6 103230 85
2003-03-18 13:36 51°11.986 2°47.42 15.8 10 6.6 103230 85
2003-03-18 13:37 51°12.104 2°47.76 15.6 11 6.6 103220 85
2003-03-18 13:38 51°12.225 2°48.111 15.3 11 6.6 103230 85
2003-03-18 13:39 51°12.344 2°48.453 14.6 14 6.6 103230 85
2003-03-18 13:40 51°12.465 2°48.806 14 8 6.6 103220 85
2003-03-18 13:41 51°12.586 2°49.155 14.2 12 6.6 103220 85
2003-03-18 13:42 51°12.705 2°49.495 15.2 14 6.6 103230 85
2003-03-18 13:43 51°12.829 2°49.849 15.8 11 6.6 103230 85
2003-03-18 13:44 51°12.947 2°50.189 14 14 6.6 103220 85
2003-03-18 13:45 51°13.07 2°50.541 15.7 13 6.6 103230 85
2003-03-18 13:46 51°13.192 2°50.874 14.6 10 6.6 103220 85
2003-03-18 13:47 51°13.326 2°51.217 16.3 10 6.6 103230 86
2003-03-18 13:48 51°13.46 2°51.557 15.5 10 6.5 103210 85
2003-03-18 13:49 51°13.598 2°51.898 15.9 8 6.5 103220 86
2003-03-18 13:50 51°13.73 2°52.24 14.8 10 6.5 103220 86
2003-03-18 13:51 51°13.864 2°52.58 14.7 7 6.5 103220 85
2003-03-18 13:52 51°13.994 2°52.918 15.5 11 6.5 103220 85
2003-03-18 13:53 51°14.114 2°53.259 13.8 9 6.6 103220 85
2003-03-18 13:54 51°14.25 2°53.558 14.5 10 6.6 103220 85
2003-03-18 13:55 51°14.376 2°53.85 13.2 14 6.5 103220 85
2003-03-18 13:56 51°14.449 2°54.185 12.8 25 6.5 103210 86
2003-03-18 13:57 51°14.466 2°54.539 12.3 39 6.5 103210 86
2003-03-18 13:58 51°14.421 2°54.874 11.4 319 6.5 103210 85
2003-03-18 13:59 51°14.319 2°55.15 7.7 127 6.4 103240 86